Location: Duncanville
(32.6518°N, 96.9083°W)
Time: 10:47:07
(UTC+00:00)

IUS-17 SRM-1 - Pass Details

Date: 11 February 2026
Orbit: 313 x 27232 km, 28.1° (Epoch: 7 March)

Event Time Altitude Azimuth Distance (km) Brightness Sun altitude
Exits shadow 11:56:27 26° 244° (WSW) 1,256 4.1 -16.9°
Maximum altitude 11:58:29 55° 176° (S) 1,080 4.3 -16.5°
Drops below altitude 10° 12:11:46 10° 103° (ESE) 6,673 9.7 -13.7°
Sets 12:24:35 0° 102° (ESE) 11,384 11.7 -11.0°
